EW5383 Weather Reports


Display with metric or nautical units.
time (UTC)temp
F
wind
direction
speed
MPH
gust
MPH
rain 1hr
in
rain 24hr
in
rain mn
in
humidity
%
barometer
mb
20260906090044 0 0.0 0.0 0.00 0.00 0.00 1011.1
20260906084539 0 0.0 0.0 0.00 0.00 0.00 1011.2
20260906083037 0 0.0 0.0 0.00 0.00 0.00 1011.3
20260906081529 0 0.0 0.0 0.00 0.00 0.00 1011.4
20260906080030 0 0.0 0.0 0.00 0.00 0.00 1011.5
20260906074522 0 0.0 0.0 0.00 0.00 0.00 1011.6
20260906073018 0 0.0 0.0 0.00 0.00 0.00 1011.8
20260906071512 0 0.0 0.0 0.00 0.00 0.00 1011.8
20260906070008 0 0.0 0.0 0.00 0.00 0.00 1011.9
20260906064504 0 0.0 0.0 0.00 0.00 0.00 1011.9
20260906063102 0 0.0 0.0 0.00 0.00 0.00 1012.2
20260906061555 0 0.0 0.0 0.00 0.00 0.00 1012.5
20260906060052 0 0.0 0.0 0.00 0.00 0.00 1012.6
20260906054547 0 0.0 0.0 0.00 0.00 0.00 1012.9
20260906053058 0 0.0 0.0 0.00 0.00 0.00 1013.1
20260906051538 0 0.0 0.0 0.00 0.00 0.00 1013.1
20260906050042 0 0.0 0.0 0.00 0.00 0.00 1013.0
20260906044530 0 0.0 0.0 0.00 0.00 0.00 1013.0
20260906043030 0 0.0 0.0 0.00 0.00 0.00 1012.8
20260906041521 0 0.0 0.0 0.00 0.00 0.00 1013.0
20260906040017 0 0.0 0.0 0.00 0.00 0.00 1013.3
20260906034512 0 0.0 0.0 0.00 0.00 0.00 1013.3
20260906033018 0 0.0 0.0 0.00 0.00 0.00 1013.3
20260906031503 0 0.0 0.0 0.00 0.00 0.00 1013.3
20260906030100 0 0.0 0.0 0.00 0.00 0.00 1013.4
20260906024557 0 0.0 0.0 0.00 0.00 0.00 1013.5
20260906023055 0 0.0 0.0 0.00 0.00 0.00 1013.5
20260906021547 81 336 0.0 0.0 0.00 0.00 0.00 1 1013.6
20260906020057 82 333 0.0 0.0 0.00 0.00 0.00 1 1013.6
20260906014541 82 332 0.0 0.0 0.00 0.00 0.00 1 1013.4
20260906013048 82 332 0.0 0.0 0.00 0.00 0.00 1 1013.1
20260906011535 83 333 0.0 0.0 0.00 0.00 0.00 1 1012.9
20260906010028 83 332 0.0 0.0 0.00 0.00 0.00 1 1012.9
20260906004523 83 332 0.0 0.0 0.00 0.00 0.00 1 1012.9
20260906003019 84 333 0.0 0.0 0.00 0.00 0.00 1 1013.0
20260906001518 84 332 0.0 0.0 0.00 0.00 0.00 1 1012.8
20260906000030 85 333 0.0 0.0 0.00 0.00 0.00 2 1012.8
20260905234507 85 330 0.0 0.0 0.00 0.00 0.00 22 1012.8
20260905233002 86 330 0.0 0.0 0.00 0.00 0.00 41 1012.6
20260905231556 87 55 0.0 0.0 0.00 0.00 0.00 47 1012.7
20260905230054 88 290 0.0 0.0 0.00 0.00 0.00 54 1012.7
20260905224552 89 314 0.0 0.0 0.00 0.00 0.00 57 1012.6
20260905223043 89 298 0.0 1.0 0.00 0.00 0.00 56 1012.7
20260905221540 90 76 0.0 0.0 0.00 0.00 0.00 58 1012.6
20260905220036 91 320 0.0 0.0 0.00 0.00 0.00 60 1012.5
20260905214532 92 25 0.0 1.0 0.00 0.00 0.00 60 1012.6
20260905213029 94 37 0.0 1.0 0.00 0.00 0.00 60 1012.4
20260905211522 94 304 0.0 0.0 0.00 0.00 0.00 60 1012.5
20260905210018 94 146 0.0 1.0 0.00 0.00 0.00 60 1012.7
20260905204514 94 78 0.0 1.0 0.00 0.00 0.00 59 1012.5
20260905203011 95 70 0.0 1.0 0.00 0.00 0.00 60 1012.4
20260905201508 95 8 0.0 0.0 0.00 0.00 0.00 59 1012.5
20260905200000 95 29 0.0 0.0 0.00 0.00 0.00 58 1012.7
20260905194608 95 304 0.0 1.0 0.00 0.00 0.00 59 1012.9
20260905193052 96 233 0.0 1.0 0.00 0.00 0.00 59 1013.0
20260905191553 95 352 0.0 0.0 0.00 0.00 0.00 59 1013.1
20260905190043 96 18 0.0 0.0 0.00 0.00 0.00 59 1013.3
20260905184554 96 228 0.0 1.0 0.00 0.00 0.00 58 1013.4
20260905183043 95 65 0.0 1.0 0.00 0.00 0.00 59 1013.3
20260905181535 96 60 0.0 0.0 0.00 0.00 0.00 59 1013.5
20260905180032 96 353 0.0 0.0 0.00 0.00 0.00 59 1013.6
20260905174521 97 114 0.0 0.0 0.00 0.00 0.00 59 1013.6
20260905173019 96 240 0.0 1.0 0.00 0.00 0.00 59 1013.8
20260905171518 95 62 0.0 1.0 0.00 0.00 0.00 59 1014.2
20260905170014 96 60 0.0 0.0 0.00 0.00 0.00 59 1014.4
20260905164510 95 285 0.0 1.0 0.00 0.00 0.00 59 1014.5
20260905163005 95 86 0.0 0.0 0.00 0.00 0.00 59 1014.5
20260905161602 95 354 0.0 1.0 0.00 0.00 0.00 59 1014.7
20260905160056 95 233 0.0 0.0 0.00 0.00 0.00 58 1014.9
20260905154612 94 23 0.0 0.0 0.00 0.00 0.00 59 1014.9
20260905153048 94 54 0.0 1.0 0.00 0.00 0.00 58 1014.9
20260905151544 93 354 0.0 0.0 0.00 0.00 0.00 55 1014.9
20260905150040 93 80 0.0 0.0 0.00 0.00 0.00 55 1014.8
20260905144536 92 4 0.0 0.0 0.00 0.00 0.00 53 1014.8
20260905143030 92 200 0.0 0.0 0.00 0.00 0.00 43 1014.7
20260905141528 92 200 0.0 0.0 0.00 0.00 0.00 42 1014.6
20260905140025 92 205 0.0 0.0 0.00 0.00 0.00 23 1014.7
20260905134517 91 283 0.0 0.0 0.00 0.00 0.00 2 1014.7
20260905133019 90 283 0.0 0.0 0.00 0.00 0.00 1 1014.7
20260905131508 90 265 0.0 0.0 0.00 0.00 0.00 1 1014.8
20260905130006 88 44 0.0 0.0 0.00 0.00 0.00 1 1014.8
20260905124600 86 44 0.0 0.0 0.00 0.00 0.00 1 1014.7
20260905123058 84 44 0.0 0.0 0.00 0.00 0.00 1 1014.6
20260905121555 82 53 0.0 0.0 0.00 0.00 0.00 1 1014.6
20260905120048 79 53 0.0 0.0 0.00 0.00 0.00 1 1014.6
20260905114542 78 53 0.0 0.0 0.00 0.00 0.00 1 1014.5
20260905113047 0 0.0 0.0 0.00 0.00 0.00 1014.3
20260905111553 0 0.0 0.0 0.00 0.00 0.00 1014.2
20260905110038 0 0.0 0.0 0.00 0.00 0.00 1014.1
20260905104527 0 0.0 0.0 0.00 0.00 0.00 1014.1
20260905103020 0 0.0 0.0 0.00 0.00 0.00 1014.0
20260905101516 0 0.0 0.0 0.00 0.00 0.00 1013.9
20260905100011 0 0.0 0.0 0.00 0.00 0.00 1013.7
20260905094507 0 0.0 0.0 0.00 0.00 0.00 1013.7
20260905093003 0 0.0 0.0 0.00 0.00 0.00 1013.7
20260905091600 0 0.0 0.0 0.00 0.00 0.00 1013.5